Regional Weather Roundup
Issued by NWS

Home | Current Version | Previous Version | Text Only | Print | Product List | Glossary On
Versions: 1 2 3 4 5 6 7 8 9 10 11 12 13 14 15 16 17 18 19 20 21 22 23 24 25 26 27 28 29 30 31 32 33 34 35 36 37 38 39 40 41 42 43 44 45 46 47 48 49 50
000
ASUS43 KTOP 012008
RWRKS

WEATHER ROUNDUP FOR KANSAS
NATIONAL WEATHER SERVICE GOODLAND KS
200 PM CST SUN MAR 01 2015

NOTE:  "FAIR" INDICATES FEW OR NO CLOUDS BELOW 12,000 FEET WITH NO
SIGNIFICANT WEATHER AND/OR OBSTRUCTIONS TO VISIBILITY.

KSZ001>006-013>018-027>032-041>047-012100-
NORTHWEST KANSAS

CITY           SKY/WX    TMP DP  RH WIND       PRES   REMARKS
GOODLAND       MOSUNNY   33  18  53 N10       30.27F WCI  25
HAYS           CLOUDY    30  14  51 N7        30.36F
HILL CITY      PTSUNNY   32  19  58 N6        30.35F
RUSSELL        PTSUNNY   32  19  58 NW8       30.35F
$$

KSZ061>065-074>080-084>089-012100-
SOUTHWEST KANSAS

CITY           SKY/WX    TMP DP  RH WIND       PRES   REMARKS
DODGE CITY     CLOUDY    30  20  66 NW7       30.33F
ELKHART          N/A     30  21  69 N6          N/A
GARDEN CITY    CLOUDY    27  19  72 CALM      30.31S
GREAT BEND     CLOUDY    30  19  64 N8        30.36F
LIBERAL        CLOUDY    28  21  74 NE6       30.34R
PRATT          PTSUNNY   34  23  64 N12       30.36F WCI  25
$$

KSZ066>073-081>083-090>101-012100-
SOUTHEAST KANSAS

CITY           SKY/WX    TMP DP  RH WIND       PRES   REMARKS
CHANUTE        CLOUDY    31  22  69 N5        30.39F
COFFEYVILLE    CLOUDY    33  23  66 N7        30.40S
HUTCHINSON     PTSUNNY   32  19  58 N3        30.37F
MEDICINE LODGE   N/A     33  21  61 NE9       30.37F
NEWTON         CLOUDY    28  18  64 N6        30.39F
PARSONS        CLOUDY    34  23  64 N7        30.40F
WICHITA INTL   PTSUNNY   30  19  63 N12       30.39S WCI  20
WICHITA JABRA  PTSUNNY   29  20  69 N10       30.38F WCI  20
WICHITA MCCONL CLOUDY    29  21  72 N8        30.38S
WINFIELD       CLOUDY    31  23  72 NW10      30.39S WCI  22
$$

KSZ007>012-019>026-033>040-048>060-102>105-012100-
NORTHEAST KANSAS

CITY           SKY/WX    TMP DP  RH WIND       PRES   REMARKS
CONCORDIA      MOSUNNY   33  21  61 CALM      30.37F
EMPORIA        CLOUDY    31  20  63 N8        30.38F
LAWRENCE       CLOUDY    32  20  61 CALM      30.39F
MANHATTAN      MOSUNNY   33  20  58 VRB5      30.39F
MARYSVILLE     MOSUNNY   32  23  69 NW5       30.37S
OLATHE IND     CLOUDY    30  21  69 CALM      30.38F
OLATHE EXE     CLOUDY    31  20  63 W5        30.36F
SALINA         PTSUNNY   33  21  61 N8        30.39F
TOPEKA BILLARD CLOUDY    32  21  64 W8        30.40F
TOPEKA FORBES  PTSUNNY   34  22  61 NW9       30.38F
$$



USA.gov is the U.S. government's official web portal to all federal, state and local government web resources and services.